Location: Dammartin
(48.9032°N, 1.6195°E)
Time: 10:51:53
(UTC+00:00)

SO-50 - Pass Details

Date: 05 December 2023
Orbit: 607 x 661 km, 64.6° (Epoch: 21 February)

Event Time Altitude Azimuth Distance (km) Brightness Sun altitude
Exits shadow 06:33:05 10° 313° (NW) 2,053 ? -9.0°
Maximum altitude 06:35:27 14° 344° (NNW) 1,806 ? -8.7°
Drops below altitude 10° 06:37:50 10° 15° (NNE) 2,040 ? -8.3°
Sets 06:41:15 0° 42° (NE) 2,936 ? -7.8°
